Flag for Guatemala Weather past 2 weeks in Guatemala, Guatemala

Now
N/A

Drizzle.


Feels Like: N/A
Forecast: 54 / 80 °F
Wind: 12 mph from Northeast

Location: Guatemala Aeropuertola Aurora

Current Time: Aug 20, 2014 at 1:13:23 PM

Latest Report: Aug 20, 2014 at 12:35 PM


Visibility: N/A

Pressure: N/A

Humidity: N/A

Dew point: N/A

Location of GuatemalaLocation

Historic Weather in Guatemala — Graph

°F

Guatemala temperature yesterday

Maximum temperature yesterday: 79 °F (at 1:00 PM)
Minimum temperature yesterday: 63 °F (at 6:00 AM)
Average temperature yesterday: 70 °F

Past Weeks' High & Low Weather Summary

 TemperatureHumidityPressure
High79 °F (Aug 5, 12:00 PM)100% (Aug 5, 6:00 PM)30.39 "Hg (Aug 5, 6:00 PM)
Low59 °F (Aug 8, 2:00 AM)39% (Aug 15, 3:00 PM)30.18 "Hg (Aug 10, 4:00 PM)
Average69 °F75%30.29 "Hg
* Reported Aug 5 12:00 Noon — Aug 20 12:00 Noon, Guatemala, Weather by CustomWeather, © 2014

Note: Actual official high and low records may vary slightly from our data, if they occured in-between our weather recording intervals... More about our weather records

Advertising

Guatemala weather history for previous 24 hours

 ConditionsComfort  
Time TempWeatherWind HumidityBarometerVisibility
12:00 PM
Aug 20
70 °FPartly sunny.12 mph69%30.30 "HgN/A
11:00 AM70 °FPartly sunny.14 mph69%30.30 "HgN/A
10:00 AM70 °FScattered clouds.12 mph69%30.33 "HgN/A
9:00 AM66 °FPartly sunny.14 mph78%30.33 "HgN/A
8:00 AM66 °FOvercast.14 mph83%30.30 "HgN/A
7:00 AM64 °FPartly sunny.9 mph83%30.27 "HgN/A
6:00 AM63 °FPartly sunny.9 mph83%30.24 "HgN/A
5:00 AM63 °FClear.12 mph83%30.24 "Hg10 mi
4:00 AM64 °FClear.9 mph78%30.21 "Hg10 mi
3:00 AM64 °FClear.14 mph78%30.21 "Hg10 mi
2:00 AM64 °FPassing clouds.14 mph83%30.24 "HgN/A
1:00 AM64 °FPassing clouds.16 mph83%30.24 "HgN/A
12:00 AM64 °FPassing clouds.14 mph83%30.27 "HgN/A
11:00 PM
Aug 19
64 °FPassing clouds.16 mph88%30.27 "HgN/A
10:00 PM66 °FPassing clouds.12 mph88%30.27 "HgN/A
7:00 PM72 °FClear.9 mph65%30.21 "Hg10 mi
6:00 PM73 °FPartly sunny.14 mph61%30.18 "HgN/A
5:00 PM75 °FPartly sunny.14 mph57%30.18 "HgN/A
4:00 PM77 °FPartly sunny.16 mph54%30.18 "HgN/A
3:00 PM79 °FPartly sunny.16 mph45%30.21 "HgN/A
2:00 PM79 °FPartly sunny.18 mph48%30.24 "HgN/A
1:00 PM79 °FBroken clouds.18 mph48%30.24 "HgN/A
Weather by CustomWeather, © 2014

See weather overviewHow to use our weather pages